Starlink 35154

operational
NORAD ID: 65612 Int'l Des: 2025-207 Owner: SPXS Country: US Constellation: starlink
NOTLE

Über Starlink 35154

Beschreibung wird geladen...

Live-Position

3D-Globus wird geladen...

Nächste Überflüge

Höhenverlauf

Altitude vs Time

uPlot chart will show altitude changes over time

Zweizeiliger Elementsatz

1 65612U 25207W 25308.66064512 .00031401 00000-0 80340-3 0 9991
2 65612 97.6052 13.0254 0000863 98.4789 261.6554 15.39367634 9137
Epoch: 4. Nov. 2025 • Age: 15 hours

Aktueller Status

Höhe 474.0 km
Geschwindigkeit 7.63 km/s
Subsatellitenpunkt -67.67°S, 119.59°W
Startdatum 13. Sept. 2025
Alter 0.1 years
Typ internet

Technische Details

Klassifizierung Payload
Masse 575.00 kg
Trockenmasse 530.00 kg
Gesamtmasse 575.00 kg
Länge 0.30 m
Durchmesser 4.10 m
Spannweite 29.00 m
Form Box + pan
Hersteller SPXS
Bus-Typ Starlink V2MO
Phasenstatus In Orbit
Besitzer/Staat SPXS/US

Große Konstellationen

Loading constellations...